[[{"header":{"parameterUnit":"m.s-1","parameterCategory":1,"la1":30.2991,"la2":30.254,"lo1":-89.0895,"lo2":-89.0444,"dy":0.0017,"dx":0.0017,"nx":28,"ny":28,"refTime":"2023-10-02T09:00:00:Z","depth":0,"parameterNumber":2,"parameterNumberName":"U-component_of_WINDS"},"data":[0,0,0,0,0,0,0,0,0,0,0,0,0,0,0,0,0,0,0,0,0,0,0,0,0,0,0,0,0,0,0,0,0,0,0,0,0,0,0,0,0,0,0,0,0,0,0,0,0,0,0,0,0,0,0,0,0,0,-3.2578,-3.2577,0,-3.2546,-3.2546,-3.2545,-3.2434,-3.2431,-3.2429,-3.2426,-3.2396,-3.2398,-3.24,0,0,0,0,0,0,0,0,0,0,0,0,0,-3.2545,-3.2546,-3.2578,-3.2577,-3.2577,-3.2546,-3.2546,-3.2545,-3.2434,-3.2431,-3.2428,-3.2425,-3.2396,-3.2398,-3.24,0,0,0,0,0,0,0,0,0,0,0,0,0,-3.2541,-3.2546,-3.2578,-3.2518,-3.2512,-3.2546,-3.2546,-3.2545,-3.2435,-3.2431,-3.2427,-3.2424,-3.2395,-3.2398,-3.24,-3.249,0,0,-3.2407,-3.2408,0,0,0,0,0,0,0,0,-3.2541,-3.2542,-3.2527,-3.2522,-3.2516,-3.249,-3.2523,-3.2527,-3.2436,-3.2464,-3.2426,-3.2422,-3.2431,-3.243,-3.2432,-3.2489,-3.2488,-3.2407,-3.2409,-3.241,-3.241,0,0,0,0,0,0,0,-3.2542,-3.2543,-3.2565,-3.2527,-3.252,-3.2493,-3.2489,-3.2523,-3.2469,-3.2462,-3.2453,-3.2451,-3.2427,-3.2431,-3.2431,-3.2487,-3.2407,-3.2409,-3.2411,-3.2412,-3.2616,-3.262,0,0,0,0,0,0,-3.255,-3.2544,-3.2566,-3.2564,-3.2519,-3.2497,-3.2492,-3.2502,-3.2469,-3.246,-3.2454,-3.2446,-3.2428,-3.2428,-3.243,-3.2532,-3.241,-3.2412,-3.2413,-3.2612,-3.2617,-3.2621,0,0,0,0,0,0,-3.255,-3.2553,-3.2568,-3.2552,-3.2552,-3.2502,-3.2514,-3.2504,-3.2507,-3.2463,-3.2453,-3.2468,-3.2425,-3.2426,-3.2476,-3.2529,-3.2413,-3.2415,-3.2607,-3.2613,-3.2619,-3.2738,0,0,0,0,0,0,-3.2549,-3.2554,-3.2587,-3.2553,-3.2553,-3.2614,-3.2518,-3.2506,-3.2511,-3.25,-3.2473,-3.2465,-3.2422,-3.2473,-3.2478,-3.253,-3.2417,-3.2602,-3.261,-3.2617,-3.2729,-3.2748,-3.2763,0,0,0,0,0,-3.2549,-3.2622,-3.2589,-3.2592,-3.2593,-3.2617,-3.2617,-3.2566,-3.2516,-3.2549,-3.2521,-3.2466,-3.2523,-3.2479,-3.2484,-3.2538,-3.2598,-3.2608,-3.2617,-3.2722,-3.2744,-3.2763,0,0,0,0,0,0,-3.2663,-3.2617,-3.2579,-3.2644,-3.2635,-3.2598,-3.2638,-3.2591,-3.2597,-3.2586,-3.2524,-3.2519,-3.2577,-3.2563,-3.2514,-3.2623,-3.2552,-3.2562,-3.263,-3.2651,-3.2668,-3.2669,-3.2419,0,0,0,0,0,-3.2697,-3.2719,-3.2677,-3.2739,-3.2736,-3.2689,-3.2697,-3.2659,-3.2647,-3.2643,-3.2619,-3.2611,-3.2626,-3.2638,-3.2651,-3.2728,-3.272,-3.2767,-3.2785,-3.2799,-3.2808,-3.2846,-3.2867,-3.2651,-3.2651,-3.2651,0,0,-3.2765,-3.2742,-3.276,-3.2761,-3.275,-3.2775,-3.2686,-3.2716,-3.2735,-3.2648,-3.2692,-3.2675,-3.2662,-3.2725,-3.2752,-3.2715,-3.2866,-3.281,-3.2822,-3.2823,-3.2858,-3.2878,-3.2897,-3.2657,-3.2656,-3.2655,0,0,-3.2901,-3.2887,-3.2935,-3.2926,-3.291,-3.2877,-3.289,-3.286,-3.2844,-3.2888,-3.2824,-3.2846,-3.2875,-3.2868,-3.2868,-3.3004,-3.2953,-3.301,-3.3098,-3.3137,-3.3153,-3.3168,-3.3215,-3.3233,-3.302,-3.302,-3.302,0,-3.2987,-3.3021,-3.2967,-3.3001,-3.3003,-3.2926,-3.2975,-3.297,-3.2959,-3.2963,-3.2922,-3.2957,-3.2943,-3.3003,-3.3036,-3.304,-3.3051,-3.3011,-3.3155,-3.317,-3.3183,-3.3226,-3.3244,-3.3027,-3.3026,-3.3025,-3.3025,0,-3.3128,-3.3153,-3.3195,-3.3185,-3.3193,-3.3235,-3.3187,-3.3202,-3.3164,-3.3137,-3.3183,-3.3164,-3.317,-3.3183,-3.3146,-3.3238,-3.3215,-3.3166,-3.3092,-3.3211,-3.3251,-3.3267,-3.3037,-3.3034,-3.3032,-3.3031,0,0,-3.3333,-3.3293,-3.3309,-3.3304,-3.3281,-3.33,-3.334,-3.3345,-3.3359,-3.3355,-3.3386,-3.3414,-3.3368,-3.3368,-3.3331,-3.3365,-3.3472,-3.3311,-3.331,-3.334,-3.3571,-3.3606,-3.3627,-3.344,-3.3443,-3.3446,-3.3572,0,-3.346,-3.3523,-3.3475,-3.3547,-3.3569,-3.3498,-3.3532,-3.3522,-3.3499,-3.3515,-3.349,-3.3509,-3.3448,-3.3448,-3.3479,-3.3453,-3.3518,-3.3444,-3.3467,-3.3469,-3.347,-3.3648,-3.3685,-3.3805,-3.3587,-3.359,-3.3592,0,-3.3616,-3.3618,-3.3692,-3.3665,-3.3672,-3.3704,-3.3705,-3.3722,-3.3711,-3.3691,-3.3693,-3.3647,-3.3684,-3.3614,-3.3665,-3.3615,-3.3623,-3.3612,-3.3616,-3.3613,-3.3535,-3.3649,-3.3842,-3.3859,-3.3616,-3.3614,-3.3613,0,-3.3756,-3.3778,-3.3824,-3.3822,-3.3792,-3.3815,-3.3804,-3.3789,-3.3796,-3.3798,-3.3802,-3.381,-3.3814,-3.3821,-3.3778,-3.3732,-3.3834,-3.3761,-3.3819,-3.382,-3.3841,-3.384,-3.4036,-3.3851,-3.3851,-3.385,-3.385,0,-3.3901,-3.3949,-3.3886,-3.3914,-3.3966,-3.3912,-3.3964,-3.3946,-3.3933,-3.3957,-3.3897,-3.3922,-3.3865,-3.3884,-3.3851,-3.3897,-3.39,-3.3885,-3.3876,-3.3889,-3.3891,-3.3891,-3.3881,-3.3855,-3.3854,-3.3853,-3.3852,0,-3.4064,-3.4024,-3.407,-3.4038,-3.4031,-3.407,-3.4043,-3.4069,-3.4042,-3.4073,-3.4078,-3.4036,-3.4055,-3.4014,-3.4028,-3.4006,-3.4071,-3.4049,-3.4074,-3.4067,-3.4126,-3.412,-3.4327,-3.4351,-3.4153,-3.4155,-3.4157,0,-3.4158,-3.4193,-3.4165,-3.4176,-3.4168,-3.4187,-3.4194,-3.4144,-3.4153,-3.4143,-3.417,-3.4184,-3.4191,-3.4226,-3.4197,-3.4207,-3.4184,-3.4256,-3.4185,-3.4197,-3.4183,-3.418,-3.4183,-3.427,-3.4272,-3.4274,-3.4276,0,-3.4329,-3.4308,-3.4319,-3.4324,-3.4333,-3.4335,-3.4332,-3.4346,-3.4292,-3.4306,-3.4324,-3.433,-3.4344,-3.4359,-3.4363,-3.4352,-3.4305,-3.4299,-3.4312,-3.4325,-3.4337,-3.4329,-3.4111,-3.4293,-3.4292,-3.429,-3.4289,-3.4289,-3.4458,-3.4486,-3.447,-3.4485,-3.4478,-3.4477,-3.4499,-3.4475,-3.4489,-3.4495,-3.4466,-3.449,-3.4479,-3.4479,-3.4474,-3.4493,-3.446,-3.4481,-3.4485,-3.449,-3.4499,-3.4337,-3.4494,-3.4493,-3.4493,-3.4492,-3.4492,0,-3.4624,-3.4611,-3.4625,-3.4623,-3.4635,-3.4591,-3.4586,-3.4599,-3.4621,-3.4614,-3.4623,-3.4644,-3.4659,-3.4632,-3.4642,-3.4662,-3.4641,-3.4667,-3.4663,-3.4661,-3.4528,-3.4514,-3.4683,-3.4683,-3.4683,-3.4683,-3.4683,-3.4683,-3.4712,-3.4755,-3.4732,-3.4771,-3.4758,-3.4781,-3.4782,-3.4781,-3.4775,-3.4801,-3.4812,-3.4795,-3.478,-3.4789,-3.48,-3.4792,-3.4797,-3.483,-3.4814,-3.469,-3.4671,-3.4653,-3.4639,-3.4832,-3.4832,-3.4945,-3.4946,-3.4947]},{"header":{"parameterUnit":"m.s-1","parameterCategory":1,"la1":30.2991,"la2":30.254,"lo1":-89.0895,"lo2":-89.0444,"dy":0.0017,"dx":0.0017,"nx":28,"ny":28,"refTime":"2023-10-02T09:00:00:Z","depth":0,"parameterNumber":3,"parameterNumberName":"V-component_of_WINDS"},"data":[0,0,0,0,0,0,0,0,0,0,0,0,0,0,0,0,0,0,0,0,0,0,0,0,0,0,0,0,0,0,0,0,0,0,0,0,0,0,0,0,0,0,0,0,0,0,0,0,0,0,0,0,0,0,0,0,0,0,2.2722,2.2722,0,2.2784,2.2784,2.2785,2.2851,2.2852,2.2853,2.2854,2.2912,2.2913,2.2914,0,0,0,0,0,0,0,0,0,0,0,0,0,2.2657,2.2658,2.2722,2.2723,2.2723,2.2784,2.2784,2.2785,2.2851,2.2852,2.2854,2.2855,2.2912,2.2913,2.2914,0,0,0,0,0,0,0,0,0,0,0,0,0,2.2698,2.2658,2.2722,2.2764,2.2768,2.2783,2.2784,2.2785,2.2851,2.2853,2.2854,2.2855,2.2912,2.2913,2.2914,2.2891,0,0,2.2917,2.2917,0,0,0,0,0,0,0,0,2.2696,2.2701,2.2757,2.2761,2.2766,2.2812,2.2783,2.2821,2.2851,2.2819,2.2854,2.2856,2.2877,2.2881,2.2889,2.2894,2.2896,2.2917,2.2917,2.2918,2.2918,0,0,0,0,0,0,0,2.2693,2.2698,2.2746,2.2757,2.2763,2.2778,2.2786,2.279,2.2839,2.2822,2.2827,2.2834,2.288,2.2888,2.2891,2.2897,2.2917,2.2918,2.2918,2.2919,2.2886,2.2884,0,0,0,0,0,0,2.2684,2.2695,2.2744,2.2748,2.2734,2.2778,2.2787,2.2795,2.2839,2.2848,2.2833,2.2837,2.2886,2.289,2.2894,2.287,2.2918,2.2919,2.2919,2.2887,2.2885,2.2884,0,0,0,0,0,0,2.2683,2.2688,2.2742,2.2723,2.2731,2.2778,2.2787,2.2796,2.2804,2.2847,2.2856,2.2832,2.2887,2.2892,2.2892,2.2872,2.2919,2.292,2.2889,2.2887,2.2885,2.2821,0,0,0,0,0,0,2.268,2.2687,2.268,2.2723,2.2732,2.2739,2.2786,2.2796,2.2806,2.2812,2.2849,2.2857,2.2889,2.289,2.2892,2.2875,2.2921,2.2891,2.2888,2.2885,2.2825,2.2817,2.281,0,0,0,0,0,2.2678,2.2658,2.2679,2.2684,2.2724,2.2738,2.2743,2.2782,2.2805,2.2797,2.2825,2.2856,2.2875,2.2889,2.2893,2.2875,2.2892,2.2889,2.2885,2.2828,2.2818,2.281,0,0,0,0,0,0,2.2609,2.2664,2.2688,2.2682,2.2705,2.275,2.2741,2.277,2.2786,2.2791,2.2837,2.2844,2.2838,2.2857,2.2872,2.2855,2.2888,2.2885,2.2843,2.2834,2.2827,2.2821,2.2922,0,0,0,0,0,2.2594,2.2603,2.265,2.2639,2.265,2.2693,2.2701,2.2729,2.2754,2.2764,2.2792,2.2814,2.2825,2.2831,2.2843,2.2829,2.2837,2.2818,2.2811,2.2804,2.2801,2.2794,2.2786,2.2873,2.2873,2.2873,0,0,2.2561,2.2592,2.2595,2.2627,2.2648,2.2654,2.2701,2.2706,2.2711,2.2764,2.2765,2.2787,2.2814,2.2806,2.2804,2.2822,2.2779,2.28,2.2795,2.2795,2.279,2.2782,2.2774,2.2871,2.2871,2.2871,0,0,2.2505,2.253,2.2524,2.2545,2.2578,2.2607,2.2606,2.2646,2.2663,2.2666,2.2706,2.2712,2.273,2.2748,2.2759,2.2711,2.274,2.2714,2.2674,2.2667,2.266,2.2654,2.2636,2.2629,2.2711,2.2711,2.2711,0,2.2459,2.2472,2.2517,2.252,2.2532,2.2584,2.2578,2.2595,2.2629,2.2636,2.2656,2.268,2.2702,2.2699,2.2687,2.2695,2.2694,2.2709,2.2658,2.2652,2.2648,2.2631,2.2624,2.2707,2.2708,2.2708,2.2708,0,2.2415,2.2423,2.2415,2.2448,2.246,2.2458,2.2501,2.2508,2.2535,2.2562,2.2563,2.2592,2.2611,2.2613,2.2639,2.2614,2.2623,2.265,2.2683,2.2635,2.262,2.2614,2.2702,2.2703,2.2705,2.2705,0,0,2.2315,2.2375,2.2371,2.2387,2.2428,2.2434,2.2435,2.2455,2.2459,2.2482,2.2482,2.2497,2.2522,2.2535,2.2564,2.2558,2.2517,2.2585,2.2586,2.257,2.249,2.2468,2.246,2.2537,2.2536,2.2535,2.2487,0,2.2264,2.227,2.2311,2.2304,2.2312,2.2361,2.2362,2.2385,2.2411,2.242,2.2448,2.2457,2.249,2.2498,2.2495,2.2522,2.2501,2.2527,2.2536,2.2536,2.2526,2.2452,2.243,2.2383,2.2481,2.248,2.248,0,2.2206,2.2227,2.2221,2.2263,2.2267,2.2267,2.229,2.2299,2.2327,2.2345,2.2361,2.2394,2.2396,2.2428,2.2431,2.2448,2.2454,2.2468,2.2467,2.2468,2.2503,2.245,2.2369,2.2361,2.2471,2.2472,2.2472,0,2.2132,2.2159,2.2159,2.2172,2.222,2.2219,2.2238,2.2268,2.2278,2.2298,2.2304,2.2323,2.2332,2.2345,2.2382,2.2403,2.238,2.2416,2.2394,2.2393,2.2385,2.2385,2.2302,2.2392,2.2392,2.2392,2.2392,0,2.2071,2.2065,2.2127,2.2127,2.2121,2.2168,2.2161,2.2186,2.2212,2.2217,2.226,2.2263,2.2312,2.232,2.2349,2.2346,2.235,2.2364,2.2372,2.2359,2.2357,2.2363,2.2366,2.239,2.2391,2.2391,2.2391,0,2.1987,2.2028,2.2032,2.2078,2.209,2.2084,2.2123,2.2124,2.2153,2.2158,2.2161,2.2206,2.2218,2.2256,2.2277,2.2296,2.2284,2.2299,2.2275,2.2279,2.2255,2.2256,2.2171,2.2162,2.2259,2.2258,2.2257,0,2.1944,2.1941,2.1988,2.1995,2.2014,2.2025,2.2036,2.2082,2.2091,2.2124,2.212,2.2136,2.2151,2.2167,2.22,2.2216,2.2231,2.2201,2.2234,2.2222,2.2229,2.2228,2.2228,2.2193,2.2192,2.2191,2.219,0,2.1864,2.1885,2.19,2.1923,2.1935,2.1955,2.1977,2.1979,2.2031,2.2039,2.2053,2.2064,2.2087,2.2101,2.2123,2.2142,2.2173,2.218,2.2175,2.2162,2.2147,2.2153,2.2253,2.2181,2.2182,2.2182,2.2183,2.2183,2.1798,2.1798,2.1831,2.1847,2.1869,2.1889,2.1892,2.1922,2.1935,2.1958,2.1985,2.1995,2.2023,2.2056,2.2072,2.208,2.2097,2.2091,2.2089,2.2087,2.208,2.2148,2.2084,2.2085,2.2085,2.2085,2.2085,0,2.1719,2.1743,2.1758,2.1788,2.18,2.1832,2.1858,2.1865,2.1874,2.1899,2.1914,2.1929,2.1944,2.1979,2.1996,2.1995,2.201,2.1998,2.1998,2.2001,2.2064,2.2066,2.1986,2.1986,2.1986,2.1986,2.1986,2.1986,2.1679,2.168,2.1705,2.1718,2.1742,2.1754,2.1766,2.1784,2.1804,2.182,2.1833,2.1857,2.1885,2.1905,2.192,2.193,2.1933,2.1916,2.193,2.1988,2.1997,2.2006,2.2008,2.1917,2.1917,2.1866,2.1866,2.1866]}]]